METAR Formatted Surface Weather Observation
Issued by NWS

Home | Current Version | Previous Version | Text Only | Print | Product List | Glossary On
Versions: 1 2 3 4 5 6 7 8 9 10 11 12
000
SAUS45 KFGZ 291459 COR
MTRRQE
METAR KRQE 291453Z AUTO 00000KT 10SM CLR 19/14 A3040 RMK AO2 SLP177
T01940139 51009 TSNO



USA.gov is the U.S. government's official web portal to all federal, state and local government web resources and services.